Regional Weather Roundup
Issued by NWS

Home | Current Version | Previous Version | Text Only | Print | Product List | Glossary Off
Versions: 1 2 3 4 5 6 7 8 9 10 11 12 13 14 15 16 17 18 19 20 21 22 23 24 25 26 27 28 29 30 31 32 33 34 35 36 37 38 39 40 41 42 43 44 45 46 47 48 49 50

000
ASUS45 KTFX 052310
RWRMT
MONTANA REGIONAL WEATHER ROUNDUP
NATIONAL WEATHER SERVICE GREAT FALLS MT
500 PM MDT SUN JUL 05 2015

NOTE: "FAIR" INDICATES FEW OR NO CLOUDS BELOW 12000 FEET WITH NO
SIGNIFICANT WEATHER AND/OR OBSTRUCTIONS TO VISIBILITY.

MTZ001>007-043-060000-
WEST OF THE DIVIDE

CITY           SKY/WX    TMP DP  RH WIND       PRES   REMARKS
KALISPELL      CLOUDY    65  43  44 NE22      30.12R
MISSOULA       PTSUNNY   74  49  41 SE14      30.02S
BUTTE          CLOUDY    67  49  52 SE6       30.11R
MULLAN PASS    MOSUNNY   70  49  47 CALM      30.13R
DEER LODGE       N/A     61  46  59 N9        30.14F
EUREKA           N/A     73  41  31 NE12G17   30.10S
HAMILTON         N/A     72  54  53 N16       29.98R
LIBBY            N/A     73  45  35 NE7       30.08R
PLAINS           N/A     80  48  32 N7        30.03R
RONAN            N/A     68  49  50 S18       30.11R
$$

MTZ008-052>055-060000-
SOUTHWEST MONTANA

CITY           SKY/WX    TMP DP  RH WIND       PRES   REMARKS
BOZEMAN        CLOUDY    66  51  58 S8        30.09S
DILLON         CLOUDY    68  51  54 NE29G35   30.04R
W YELLOWSTONE  CLOUDY    66  50  55 SW16      30.14F
THREE FORKS      N/A     67  57  70 N10       30.09R
TWIN BRIDGES     N/A     64  49  58 N25       30.02S
$$

MTZ009-010-012-014-046-048-049-054-060000-
EAST SLOPES AND CENTRAL MONTANA

CITY           SKY/WX    TMP DP  RH WIND       PRES   REMARKS
CUT BANK       CLOUDY    53  49  86 N7        30.23R
GREAT FALLS    CLOUDY    52  49  89 N8        30.20S
MALMSTROM AFB  CLOUDY    51  50  95 NE6       30.21R
HELENA         CLOUDY    60  46  59 W6        30.17R
CONRAD           N/A     54  54 100 W7        30.22S
$$

MTZ011-013-016-021-045-047-050-051-060000-
NORTH CENTRAL MONTANA

CITY           SKY/WX    TMP DP  RH WIND       PRES   REMARKS
HAVRE          CLOUDY    61  51  70 MISG      30.16R
LEWISTOWN      LGT RAIN  53  50  89 N10       30.19R FOG
CHINOOK          N/A     63  52  67 W9        30.14R
FORT BENTON      N/A     55  52  88 S3        30.20S
$$

MTZ017>020-022>027-061-062-060000-
NORTHEAST MONTANA

CITY           SKY/WX    TMP DP  RH WIND       PRES   REMARKS
GLASGOW        PTSUNNY   68  47  46 W10       30.08S
JORDAN           N/A     63  49  60 NW14      30.13R
SIDNEY         CLOUDY    73  46  38 NW13      30.02R
WOLF POINT     CLOUDY    72  47  40 NW13      30.05R
PLENTYWOOD       N/A     70  46  43 NW12G20   30.02S
POPLAR           N/A     70  48  46 NW12      30.05R
SCOBEY           N/A     68  46  45 NW8       30.05R
$$

MTZ028>42-056>058-060000-
SOUTHCENTRAL AND SOUTHEAST MONTANA

CITY           SKY/WX    TMP DP  RH WIND       PRES   REMARKS
BAKER          CLOUDY    67  54  63 NW9       30.06R HAZE
BILLINGS       CLOUDY    64  47  53 NE10      30.14S HAZE
LIVINGSTON     CLOUDY    61  46  57 E18G26    30.13R
MILES CITY     CLOUDY    72  48  42 N9        30.06R
EKALAKA          N/A     60  53  77 NW5       30.06R
FORSYTH          N/A     70  48  46 N8        30.08R
LAUREL           N/A     64  46  52 N8        30.11R
ROUNDUP          N/A     63  46  53 S7        30.06R
$$

REGIONAL REPORTS...DAKOTAS

CITY           SKY/WX    TMP DP  RH WIND       PRES   REMARKS
WILLISTON      PTSUNNY   75  47  36 N15       30.01R
MINOT          CLOUDY    72  58  61 NW12      29.92R HAZE
DICKINSON      CLOUDY    68  57  68 NW9       29.98S HAZE
BEACH          FAIR      68  57  68 N10       30.04R HAZE
CROSBY         FAIR      68  52  56 NW15      30.01R
BISMARCK       CLOUDY    73  60  63 N9        29.92R HAZE
GRAND FORKS    PTSUNNY   77  67  71 N12       29.79S
FARGO          PTSUNNY   84  70  62 NW10      29.76R
BUFFALO SD       N/A     66  57  72 N20       29.97R
RAPID CITY     CLOUDY    73  62  68 N24G36    29.94R
$$

REGIONAL REPORTS...WYOMING/IDAHO/WASHINGTON

CITY           SKY/WX    TMP DP  RH WIND       PRES   REMARKS
GILLETTE       CLOUDY    60  57  89 N16G24    30.08R FOG
SHERIDAN       LGT RAIN  57  54  89 NW7       30.13R FOG
BUFFALO WY     RAIN      56  55  97 NW13G23   30.15R FOG
CODY           CLOUDY    55  54  94 NE12      30.14S
YELLOWSTONE LA   N/A     63  47  55 W8        30.24F
IDAHO FALLS    MOSUNNY   82  50  32 SW18      30.01F
SALMON         CLOUDY    82  46  28 W16G22    29.86R
BOISE          LGT RAIN  77  54  44 CALM      29.97S
SPOKANE        PTSUNNY   87  41  19 NE15G24   29.92S
$$

REGIONAL REPORTS...ALBERTA

CITY           SKY/WX    TMP DP  RH WIND       PRES   REMARKS
EDMONTON       MOSUNNY   64  37  36 N9G17     30.16F
CALGARY        MOSUNNY   63  43  48 N13G21    30.20S
LETHBRIDGE     CLOUDY    61  45  55 NW10G17   30.20R
MEDICINE HAT   CLOUDY    64  46  52 N10       30.15R
WATERTON GATE    N/A     54  46  76 S6          N/A
CARDSTON         N/A     55  48  76 W5          N/A
MILK RIVER       N/A     57  48  72 NW9         N/A
ONEFOUR          N/A     59  48  67 NW14        N/A
$$

REGIONAL REPORTS...SASKATCHEWAN

CITY           SKY/WX    TMP DP  RH WIND       PRES   REMARKS
SWIFT CURRENT  CLOUDY    63  48  59 N16G22    30.09R
REGINA         MOSUNNY   68  48  49 NW15      30.03R
SASKATOON      PTSUNNY   64  48  55 N16G23    30.07R
CYPRESS HILLS    N/A     54  43  66 NW6         N/A
VAL MARIE        N/A     64  48  55 NW12G17     N/A
ROCKGLEN         N/A     66  46  48 NW12G18     N/A
$$


USA.gov is the U.S. government's official web portal to all federal, state and local government web resources and services.